Location: Unspecified
(54.1780°N, 0.0000°E)
Time: 17:54:32
(UTC+00:00)

Transit 2A - Pass Details

Date: 25 June 2019
Orbit: 600 x 958 km, 66.7° (Epoch: 19 October)

Event Time Altitude Azimuth Distance (km) Brightness Sun altitude
Rises 05:40:26 0° 310° (NW) 3,567 9.1 15.7°
Reaches altitude 10° 05:43:20 10° 320° (NW) 2,579 8.6 16.1°
Maximum altitude 05:48:40 32° 23° (NNE) 1,419 8.2 16.8°
Drops below altitude 10° 05:53:33 10° 86° (E) 2,364 10.6 17.5°
Sets 05:56:06 0° 97° (E) 3,229 10.5 17.9°
